Regional Weather Roundup
Issued by NWS Northern Indiana

Home | Current Version | Previous Version | Graphics & Text | Print | Product List | Glossary On
Versions: 1 2 3 4 5 6 7 8 9 10 11 12 13 14 15 16 17 18 19 20 21 22 23 24 25 26 27 28 29 30 31 32 33 34 35 36 37 38 39 40 41 42 43 44 45 46 47 48 49 50
000
ASUS43 KIWX 270410
RWRIWX

KIWX WEATHER ROUNDUP
NATIONAL WEATHER SERVICE NORTHERN INDIANA
1200 AM EDT WED AUG 27 2014

NOTE: "FAIR" INDICATES FEW OR NO CLOUDS BELOW 12,000 FEET WITH NO
SIGNIFICANT WEATHER AND/OR OBSTRUCTIONS TO VISIBILITY.

* THESE STATIONS ARE NOT UNDER NWS QUALITY CONTROL. THEY ALSO MAY NOT
  REPORT WEATHER SUCH AS PRECIPITATION OR FOG.

INZ001>027-270500-
NORTHERN INDIANA

CITY           SKY/WX    TMP DP  RH WIND       PRES   REMARKS
GARY*          PTCLDY    72  69  92 NE6       30.11R
VALPARAISO     FOG       69  68  96 N5        30.10S VSB 1/4
MICHIGAN CITY* FOG       66  66 100 CALM      30.11S VSB 3/4
LAPORTE*       PTCLDY    67  67 100 N3        30.12R FOG
KNOX*          CLOUDY    67  65  93 N5        30.09S VSB<1/4
SOUTH BEND     PTCLDY    69  67  93 N5        30.11S FOG
GOSHEN         FOG       70  67  90 CALM      30.10R VSB 1
MONTICELLO*    CLOUDY    71  70  97 CALM      30.08S
LOGANSPORT*    CLOUDY    68  66  94 CALM      30.10S FOG
ROCHESTER*     MOCLDY    72  72 100 CALM      30.10S
WARSAW*        PTCLDY    66  66 100 CALM      30.10R FOG
ANGOLA*        PTCLDY    70  61  73 N5        30.10S
FORT WAYNE     MOCLDY    70  67  90 S6        30.09F
HUNTINGTON*    PTCLDY    70  69  97 CALM      30.09F
PERU/GRISSOM   MOCLDY    70 N/A N/A SE3       30.09F HAZE
MARION*        MOCLDY    69  68  98 CALM      30.11S FOG

$$
INZ028>050-270500-
CENTRAL INDIANA

CITY           SKY/WX    TMP DP  RH WIND       PRES   REMARKS
LAFAYETTE      CLOUDY    70  69  97 CALM      30.10R
KOKOMO*        MOCLDY    68  66  94 S3        30.10S
MUNCIE*        PTCLDY    73  69  87 N3        30.11S
INDIANAPOLIS   MOCLDY    74  68  81 CALM      30.08S

$$
MIZ043>046-050>051-056>058-064>065-071>073-077>080-270500-
SOUTHWEST LOWER MICHIGAN

CITY           SKY/WX    TMP DP  RH WIND       PRES   REMARKS
BATTLE CREEK   PTCLDY    68  64  87 N5        30.12R
BENTON HARBOR  FOG       63  62  97 CALM      30.09F VSB 3/4
COLDWATER*     CLOUDY    72  71  96 CALM      30.10S FOG
HILLSDALE*     MOCLDY    71  71 100 NW3       30.11S FOG
HOLLAND        CLEAR     63  60  90 CALM      30.12R
GRAND RAPIDS   CLEAR     66  61  84 CALM      30.10R
KALAMAZOO      CLEAR     67  64  90 N3        30.11S
STURGIS*       CLOUDY    72  70  94 CALM      30.10S FOG
THREE RIVERS*  CLOUDY    71  69  93 NW5       30.11R FOG

$$
OHZ001>008-015>018-024>025-270500-
NORTHWEST OHIO

CITY           SKY/WX    TMP DP  RH WIND       PRES   REMARKS
WAUSEON*       FAIR      70  68  94 CALM      30.08S
DEFIANCE       CLEAR     71  68  90 CALM      30.07F
FINDLAY        CLEAR     74  70  87 W7        30.07S
TOLEDO EXPRESS PTCLDY    73  70  90 W3        30.07R
TOLEDO METCALF CLEAR     75  69  81 SW5       30.07S
LIMA           CLEAR     71  68  90 W5        30.10S

$$
&&



USA.gov is the U.S. government's official web portal to all federal, state and local government web resources and services.